Location: Newark
(52.2090°N, 4.1550°W)
Time: 11:52:34
(UTC+00:00)

A-11 Canister half - Visible Passes

Search period start: 22 September 2019 00:00
Search period end: 02 October 2019 00:00
Orbit: 1527 x 1682 km, 47.3° (Epoch: 20 September)

Date Brightness Start Highest point End Pass type
(mag) Time Alt. Az. Time Alt. Az. Time Alt. Az.
22 Sep 10.7 01:43:00 12° SE 01:44:22 12° SE 01:47:50 10° ESE visible
22 Sep 9.8 03:41:19 20° SSW 03:47:01 38° SE 03:55:35 10° E visible
23 Sep 10.8 01:22:43 12° SE 01:22:52 12° ESE 01:25:37 10° ESE visible
23 Sep 9.8 03:21:01 24° S 03:25:28 36° SE 03:33:55 10° E visible
23 Sep 9.4 05:20:07 10° WSW 05:29:22 62° SSE 05:38:55 10° E visible
24 Sep 10.9 01:02:23 10° ESE 01:02:23 10° ESE 01:03:06 10° ESE visible
24 Sep 9.8 03:00:41 28° S 03:03:55 35° SE 03:12:14 10° E visible
24 Sep 9.3 04:59:00 12° WSW 05:07:46 62° SSE 05:17:17 10° E visible
25 Sep 9.8 02:40:20 31° SSE 02:42:22 34° SE 02:50:34 10° E visible
25 Sep 9.3 04:38:38 17° WSW 04:46:10 61° SSE 04:55:38 10° E visible
26 Sep 9.8 02:19:56 32° SSE 02:20:49 33° SE 02:28:54 10° E visible
26 Sep 9.2 04:18:14 22° SW 04:24:33 60° SSE 04:33:59 10° E visible
27 Sep 9.9 01:59:32 31° SE 01:59:32 31° SE 02:07:14 10° E visible
27 Sep 9.2 03:57:49 29° SW 04:02:58 59° SSE 04:12:21 10° E visible
28 Sep 10.0 01:39:06 29° SE 01:39:06 29° SE 01:45:32 10° E visible
28 Sep 9.2 03:37:23 36° SW 03:41:23 58° SSE 03:50:43 10° E visible
28 Sep 9.3 05:36:29 10° W 05:45:48 66° S 05:55:25 10° ESE visible
29 Sep 10.2 01:18:39 26° ESE 01:18:39 26° ESE 01:23:52 10° E visible
29 Sep 9.2 03:16:57 43° SSW 03:19:47 57° SSE 03:29:04 10° E visible
29 Sep 9.2 05:15:15 11° W 05:24:11 66° S 05:33:46 10° ESE visible
30 Sep 10.4 00:58:12 22° ESE 00:58:12 22° ESE 01:02:10 10° E visible
30 Sep 9.1 02:56:30 50° SSW 02:58:12 56° SSE 03:07:26 10° E visible
30 Sep 9.1 04:54:48 16° W 05:02:34 66° S 05:12:09 10° ESE visible
01 Oct 10.6 00:37:45 18° E 00:37:45 18° E 00:40:28 10° E visible
01 Oct 9.1 02:36:02 54° S 02:36:37 54° SSE 02:45:48 10° E visible
01 Oct 9.1 04:34:20 22° WSW 04:40:58 66° S 04:50:31 10° ESE visible
